Monticello, KY

1:56 PM EST on December 14, 2019 (GMT -0500)
Wayne County

Weather History for KEKQ - September, 2019

Change the Weather History Date:

Friday, September 27, 2019

  Actual Average Record
Temperature  
Mean Temperature 73 °F -  
Max Temperature 91 °F 76 °F 91 °F (2019)
Min Temperature 55 °F 53 °F 36 °F (1991)
Cooling Degree Days 8    
Growing Degree Days 23 (Base 50)    
Moisture  
Dew Point 63 °F    
Average Humidity 88    
Maximum Humidity 100    
Minimum Humidity 38    
Precipitation  
Precipitation 0.01 in - - ()
Sea Level Pressure  
Sea Level Pressure 30.00 in    
Wind  
Wind Speed 7 mph (NNE)    
Max Wind Speed 15 mph    
Max Gust Speed 31 mph    
Visibility 5 miles    
Events Fog , Rain , Thunderstorm    
Averages and records for this station are not official NWS values.
T = Trace of Precipitation, MM = Missing Value Source: NWS Daily Summary

Daily Weather History Graph

Daily Weather History Graph

Search for Another Location

Airport or City:

Astronomy

Sep. 27, 2019 Rise Set
Actual Time 6:31 AM CDT 6:29 PM CDT
Civil Twilight 6:05 AM CDT 6:54 PM CDT
Nautical Twilight 5:35 AM CDT 7:24 PM CDT
Astronomical Twilight 5:04 AM CDT 7:55 PM CDT
Moon 4:55 AM CDT (9/27) 6:16 PM CDT (9/27)
Length of Visible Light 12h 49m
Length of Day
11h 57m
Waning Crescent, 2% of the Moon is Illuminated
Sep 27
Waning Crescent
Sep 28
New
Oct 5
First Quarter
Oct 13
Full
Oct 21
Last Quarter

Hourly Weather History & Observations

Time (CDT) Temp. Heat Index Dew Point Humidity Pressure Visibility Wind Dir Wind Speed Gust Speed Precip Events Conditions
12:56 AM 63.0 °F - 63.0 °F 100% 29.99 in 0.2 mi NW 9.2 mph - 0.00 in Fog Fog
1:56 AM 60.1 °F - 60.1 °F 100% 29.99 in 0.2 mi NNE 10.4 mph - N/A Fog Fog
2:56 AM 59.0 °F - 59.0 °F 100% 29.98 in 0.5 mi Variable 5.8 mph - N/A Fog Fog
3:10 AM 57.2 °F - 57.2 °F 100% 30.01 in 0.2 mi Variable 3.5 mph - N/A Fog Fog
3:44 AM 57.2 °F - 57.2 °F 100% 30.01 in 0.5 mi Calm Calm - N/A Fog Fog
3:56 AM 57.0 °F - 57.0 °F 100% 29.99 in 0.2 mi Calm Calm - N/A Fog Fog
4:39 AM 57.2 °F - 57.2 °F 100% 30.02 in 0.8 mi West 8.1 mph - N/A   Overcast
4:45 AM 57.2 °F - 57.2 °F 100% 30.02 in 1.2 mi Variable 5.8 mph - N/A   Overcast
4:56 AM 55.9 °F - 55.9 °F 100% 30.00 in 1.0 mi NNE 10.4 mph - N/A   Mostly Cloudy
5:03 AM 55.4 °F - 55.4 °F 100% 30.02 in 0.8 mi NNE 11.5 mph - N/A   Mostly Cloudy
5:09 AM 55.4 °F - 55.4 °F 100% 30.02 in 1.2 mi NNW 3.5 mph - N/A   Mostly Cloudy
5:17 AM 55.4 °F - 55.4 °F 100% 30.02 in 0.8 mi NNE 11.5 mph - N/A   Mostly Cloudy
5:25 AM 55.4 °F - 55.4 °F 100% 30.02 in 0.5 mi NNE 11.5 mph - N/A Fog Fog
5:32 AM 55.4 °F - 55.4 °F 100% 30.02 in 0.2 mi NNE 10.4 mph - N/A Fog Fog
5:56 AM 55.0 °F - 55.0 °F 100% 30.01 in 0.5 mi NNE 9.2 mph - N/A Fog Fog
6:13 AM 55.4 °F - 55.4 °F 100% 30.03 in 1.0 mi Calm Calm - N/A   Mist
6:16 AM 55.4 °F - 55.4 °F 100% - 2.5 mi West 9.2 mph - N/A   Partly Cloudy
6:28 AM 55.4 °F - 55.4 °F 100% 30.03 in 1.0 mi Calm Calm - N/A   Mist
6:30 AM 55.4 °F - 55.4 °F 100% 30.03 in 0.5 mi Calm Calm - N/A Fog Fog
6:40 AM 55.4 °F - 55.4 °F 100% 30.04 in 0.2 mi Calm Calm - N/A Fog Fog
6:56 AM 55.9 °F - 55.9 °F 100% 30.02 in 0.2 mi NNE 6.9 mph - N/A Fog Fog
7:24 AM 64.4 °F - 64.4 °F 100% 30.04 in 0.2 mi West 9.2 mph - N/A Fog Fog
7:33 AM 64.4 °F - 64.4 °F 100% 30.04 in 0.5 mi North - - N/A Fog Fog
7:40 AM 64.4 °F - 64.4 °F 100% 30.04 in 1.0 mi NE 8.1 mph - N/A   Overcast
7:52 AM 64.4 °F - 64.4 °F 100% 30.05 in 8.0 mi NE 8.1 mph - N/A   Mostly Cloudy
7:56 AM 64.9 °F - 64.9 °F 100% 30.02 in 9.0 mi NE 6.9 mph - N/A   Scattered Clouds
8:56 AM 69.1 °F - 69.1 °F 100% 30.03 in 10.0 mi Variable 6.9 mph - N/A   Clear
9:56 AM 75.0 °F - 71.1 °F 87% 30.04 in 10.0 mi NE 8.1 mph - N/A   Clear
10:56 AM 82.0 °F 85.9 °F 70.0 °F 67% 30.01 in 10.0 mi Variable 4.6 mph 17.3 mph N/A   Clear
11:56 AM 84.9 °F 88.8 °F 69.1 °F 59% - 10.0 mi NNW 8.1 mph - N/A   Mostly Cloudy
12:56 PM 87.1 °F 89.9 °F 66.9 °F 51% 29.97 in 10.0 mi North - - N/A   Clear
1:56 PM 91.0 °F 94.3 °F 66.9 °F 45% 29.94 in 10.0 mi WNW 11.5 mph 21.9 mph N/A   Scattered Clouds
2:56 PM 91.0 °F 92.6 °F 64.0 °F 41% 29.93 in 10.0 mi Variable 5.8 mph 24.2 mph N/A   Partly Cloudy
3:19 PM 91.4 °F 92.1 °F 62.6 °F 38% 29.96 in 10.0 mi West 13.8 mph 24.2 mph N/A   Clear
3:56 PM 91.0 °F 91.9 °F 63.0 °F 39% 29.93 in 10.0 mi West 15.0 mph 23.0 mph N/A   Clear
4:56 PM 88.0 °F 88.7 °F 63.0 °F 43% 29.93 in 10.0 mi West 9.2 mph 19.6 mph N/A   Clear
5:56 PM 84.9 °F 86.6 °F 64.9 °F 51% 29.95 in 10.0 mi West 5.8 mph - N/A   Scattered Clouds
6:56 PM 78.1 °F - 64.9 °F 64% 29.95 in 10.0 mi NNE 11.5 mph - N/A   Scattered Clouds
7:56 PM 75.9 °F - 66.0 °F 71% 29.97 in 10.0 mi NNE 11.5 mph - N/A Thunderstorm Thunderstorm
8:10 PM 75.2 °F - 69.8 °F 83% 30.02 in 6.0 mi SSE 12.7 mph 31.1 mph 0.00 in Rain Rain
8:21 PM 73.4 °F - 71.6 °F 94% 30.02 in 7.0 mi SE 10.4 mph - 0.01 in Rain , Thunderstorm Light Thunderstorms and Rain
8:31 PM 73.4 °F - 71.6 °F 94% 30.01 in 10.0 mi SE 10.4 mph - 0.01 in Rain , Thunderstorm Light Rain
8:35 PM 73.4 °F - 71.6 °F 94% 30.01 in 10.0 mi ESE 8.1 mph - 0.01 in Rain , Thunderstorm Light Rain
8:52 PM 71.6 °F - 71.6 °F 100% 30.01 in 10.0 mi SE 6.9 mph - 0.01 in   Partly Cloudy
8:56 PM 73.0 °F - 71.1 °F 93% 29.98 in 10.0 mi SE 8.1 mph - 0.01 in   Partly Cloudy
9:56 PM 69.1 °F - 69.1 °F 100% 29.97 in 10.0 mi ENE 6.9 mph - N/A   Clear
10:56 PM 72.0 °F - 70.0 °F 93% 29.95 in 10.0 mi ENE 5.8 mph - N/A   Clear
11:56 PM 72.0 °F - 70.0 °F 93% 29.94 in 10.0 mi NE 5.8 mph - N/A   Clear